CZ-6A DEB, 63390

Orbit data source: Space-Track

CZ-6A DEB, 63390 is space debris in LEO originally from a launch on Tue, 06 Aug 2024 UTC launched from the Taiyaun Space Center, China (TSC). Debris objects in space refer to the collection of defunct objects orbiting the Earth. Examples of debris include non-operational satellites, rocket bodies, and fragments generated from explosions, collisions, or faulty payload assembly.

Loading next visibility...
Identifier
63390, 2024-140ADM
Orbit
LEO
Country
Flag of CNCN / PRC
Related business
Manufacturer
SAST
Mission
Spacecraft
Bus & Motor
Unknown
Mass
Unknown
Launch date (UTC)
2024-08-06 (2 years ago)
Launch vehicle
Unknown
Launch site
Taiyaun Space Center, China (TSC)
Object type
Payload
Rocket body
Debris
Shape & HBR
Unknown shape, 0.1 m
Radar Cross Section
Small (<0.1 m²)

Expand to show TLE details & history
Last TLE update: 11 hours ago

TLE from 11 hours ago
0 CZ-6A DEB
1 63390U 24140ADM 26118.70299855  .00001258  00000-0  58860-3 0  9991
2 63390  88.9997 280.7881 0053439 355.1337   4.9325 14.18962514 88435
Epoch: 2026-04-28T16:52Z
TLE epoch observation values (Epoch: 2026-04-28T16:52:19.074Z)
Latitude
-0.0001°
Longitude
171.03411°
Altitude
793.538 km
Speed
7.477 km/s
True Right ascension
18h 43m 09s
True Declination
0° 00' 00"
Sunlit
Object was in daylight at epoch
Visualization orbit readout
Latitude
Unknown
Longitude
Unknown
Altitude
Unknown
Speed
Unknown
Apparent Right ascension
Unknown
Apparent Declination
Unknown
Sunlit
N/A
Visualization observer readout
Local Sidereal Time
11:00:38
Azimuth
Unknown
Elevation
Unknown
Doppler factor
Unknown
Orbital elements
Apogee altitude
864.313 km
Perigee altitude
787.319 km
Semi-major axis
7,203.953 km
Eccentricity
0.00534
Inclination
88.9997°
RAAN
280.7881°
Arg. of periapsis
355.1337°
True anomaly
4.98551°
Mean anomaly
4.9325°
Eccentric anomaly
4.95897°
Mean motion
3.54966 °/min
Orbital period
101.42 mins
BSTAR
0.0005886
Loading maneuver chart data...
Computing Atmospheric mass density...
Loading historical data...
Loading historical data...
Loading historical data...
Loading historical data...
Loading historical data...
Loading historical data...
Loading historical data...

Documentation

Showing up to 5 results
|